Погода в Ладовской Балке

Россия / Ставропольский край     45°37′50″N   41°23′58″E
темп.,
°C
ветер,
м/с
пор.,
м/с
влажн.,
%
обл.,
%
осадки,
мм/ч
давл.,
гПа
погр.,
м
12 мая, ср
ср1200:00+8в1198100 6.2 101758
03:00+7всв2696100 6.4 1017212
06:00+7св479862 0.9 1018284
09:00+12в45765 0.9 1018659
12:00+17вюв45585 0.0 10171245
15:00+19вюв67555 0.0 10151335
18:00+18в477090 0.0 1014246
21:00+13в348145 0.0 101446
13 мая, чт
чт1300:00+12вюв358547 0.0 101369
03:00+11в46890 0.0 101395
06:00+11в48900 0.0 1013176
09:00+18юв57660 0.0 1013524
12:00+23вюв45572 0.0 1013845
15:00+25вюв56534 0.0 10131063
18:00+22в367398 0.0 1013142
21:00+17вюв498364 0.0 1013121
14 мая, пт
пт1400:00+16вюв478198 0.0 1013118
03:00+15вюв511730 0.0 1012167
06:00+15вюв4118118 0.0 1012197
09:00+22вюв57670 0.0 1012434
12:00+27вюв55565 0.0 1012715
15:00+28в56535 0.0 1011839
18:00+25в48715 0.0 1010235
21:00+20юв46800 0.0 101192
15 мая, сб
сб1500:00+17вюв46805 0.0 101079
03:00+16юв338540 0.0 101130
06:00+18юз22860 0.0 101247
09:00+23зюз33730 0.0 1012486
12:00+27зсз34670 0.0 1013916
15:00+28сз336172 0.0 10121314
18:00+27сз34723 0.0 1012138
21:00+21сз22896 0.0 101220
16 мая, вс
вс1600:00+19ссв12915 0.0 101112
03:00+18всв22905 0.0 101126
06:00+19всв2388100 0.0 101082
09:00+23в456384 0.0 1009414
12:00+26в574968 0.0 1008772
15:00+28вюв6955100 0.0 10071284
18:00+25в51360100 0.0 1005317
21:00+21в81748100 0.0 1006453